Regional Weather Roundup
Issued by NWS Jackson, KY

Home | Current Version | Previous Version | Graphics & Text | Print | Product List | Glossary On
Versions: 1 2 3 4 5 6 7 8 9 10 11 12 13 14 15 16 17 18 19 20 21 22 23 24 25 26 27 28 29 30 31 32 33 34 35 36 37 38 39 40 41 42 43 44 45 46
000
ASUS43 KJKL 270810
RWRJKL

EAST KENTUCKY HOURLY WEATHER ROUNDUP
NATIONAL WEATHER SERVICE JACKSON KY
400 AM EDT MON APR 27 2015

NOTE: "FAIR" INDICATES FEW OR NO CLOUDS BELOW 12,000 FEET WITH
NO SIGNIFICANT WEATHER AND/OR OBSTRUCTIONS TO VISIBILITY.

* THESE REPORTS ARE NOT UNDER NWS QUALITY CONTROL AND MAY NOT
  REPORT WEATHER SUCH AS PRECIPITATION AND FOG.

KYZ079-080-083-085-087-088-110-112-115-119-120-270900
...EASTERN KENTUCKY...

CITY           SKY/WX    TMP DP  RH WIND       PRES   REMARKS
JACKSON        PTCLDY    45  31  58 CALM      29.87F
LONDON         CLEAR     42  34  73 N5        29.88S
SOMERSET*      CLEAR     43  34  70 N5        29.91S
MONTICELLO*    FOG       37  37 100 CALM      29.93R VSB 1/4
MIDDLESBORO*   FOG       39  39 100 CALM      29.88R VSB 1/2
HARLAN APT*    CLOUDY    41  41 100 CALM      29.87R VSB<1/4
HAZARD APT*    CLOUDY    46  34  61 CALM      29.87S
BLACK MTN*       N/A     34  32  93 N13         N/A  WCI  25
PIKEVILLE APT* CLOUDY    45  32  61 N5        29.85F
BIG SANDY*     CLOUDY    46  33  62 N3        29.87S
MOREHEAD APT*  MOSUNNY   39  34  81 CALM      29.91S
$$

KYZ035-036-041-042-044-050-067-078-099-270900
...CENTRAL KENTUCKY...

CITY           SKY/WX    TMP DP  RH WIND       PRES   REMARKS
MT STERLING*   CLEAR     37  34  87 NE3       29.91S
FLEMING/MASON* CLEAR     43  32  65 NW3       29.91S
DANVILLE*      MOCLDY    39  36  87 NW3       29.92R
RICHMOND*      CLEAR     43  34  70 CALM      29.89F
LEXINGTON      CLEAR     41  34  76 N3        29.91S
FRANKFORT      CLEAR     38  34  85 CALM      29.90S
$$

KYZ091>093-OHZ055-061-077-WVZ005-015-034-035-042-270900
...SOUTHERN OHIO/WEST VIRGINIA...

CITY           SKY/WX    TMP DP  RH WIND       PRES   REMARKS
COVINGTON      PTCLDY    41  34  76 CALM      29.91S
COLUMBUS       PTCLDY    37  32  82 N5        29.89F WCI  33
DAYTON         MOCLDY    41  34  76 N7        29.92R
WILMINGTON     CLEAR     38  30  73 N5        29.90S WCI  34
HUNTINGTON     CLEAR     43  30  60 N6        29.87S
CHARLESTON     CLEAR     44  30  57 W3        29.85S
PINEVILLE*     FOG       37  37 100 MISG      29.87F VSB 1/4
BECKLEY        CLEAR     38  30  73 NW3       29.81R
BLUEFIELD      PTCLDY    38  35  89 W7        29.81R WCI  33
$$

VAZ002-007-008-TNZ017-027-036-066-071-270900
...SOUTHWEST VIRGINIA/EAST TENNESSEE...

CITY           SKY/WX    TMP DP  RH WIND       PRES   REMARKS
WISE*          CLEAR     41  32  70 N6        29.84S
JONESVILLE*    SUNNY     41  37  87 CALM      29.86F
ABINGDON*      MOCLDY    45  41  84 CALM      29.82S
BRISTOL        CLEAR     43  41  93 CALM      29.82S
KNOXVILLE      CLOUDY    51  43  74 N7        29.83S
OAK RIDGE      FOG       44  42  93 CALM      29.87R VSB 1/2
CROSSVILLE     CLEAR     44  41  89 N5        29.87R
NASHVILLE      CLEAR     46  40  79 N6        29.91R
$$

...KEY TO REMARKS...
VSB - VISIBILITY IN MILES
WCI - WIND CHILL INDEX
HX  - HEAT INDEX

$$


USA.gov is the U.S. government's official web portal to all federal, state and local government web resources and services.